Elizabeth Mc Allister — WDB7652 — position and weather

sailwx.info

Track history (hours):
 
Tides and Currents Weather Stations Pressure Air Temp Water Temp Dewpoint Dewpoint Depression Visibility Wind Speed Wind Dir Waves Ship Positions

Elizabeth Mc Allister

Owner: MC ALLISTER TOWING & TRANSPORTATION INC, NEW YORK, NY. More information available from US FCC via Universal Licensing System and Coast Guard Vessel Documentation Center.

Last reported at 2014-Oct-22 07:33 UTC. Time now 2014-Oct-22 08:09 UTC.
Position N 40°38' W 074°10'.

Length 31 m.

Type: Tug. MMSI: 366945680.

Date/timePositionNaut miles runAvg speedWind from/ knotsBaromVisibWave heightAir tempDewpointWater temp
2014-Oct-22 07:33N 40°38' W 074°10'0 0.0
2014-Oct-22 06:33N 40°38' W 074°10'0 0.0
2014-Oct-22 05:33N 40°38' W 074°10'0 0.0
2014-Oct-22 04:33N 40°38' W 074°10'0 0.0
2014-Oct-22 03:33N 40°38' W 074°10'0 0.0
2014-Oct-22 02:33N 40°38' W 074°10'2 1.9
2014-Oct-22 01:33N 40°39' W 074°07'3 2.9
2014-Oct-22 00:33N 40°40' W 074°04'4 3.9
2014-Oct-21 23:33N 40°38' W 074°09'1 0.8
2014-Oct-21 22:33N 40°38' W 074°10'0 0.0
2014-Oct-21 21:33N 40°38' W 074°10'0 0.0
2014-Oct-21 20:33N 40°38' W 074°10'5 4.7
2014-Oct-21 19:33N 40°39' W 074°04'3 3.4
2014-Oct-21 18:33N 40°41' W 074°00'0 0.0
2014-Oct-21 17:33N 40°41' W 074°00'1 0.8
2014-Oct-21 16:33N 40°41' W 074°01'3 3.0
2014-Oct-21 15:33N 40°40' W 074°05'0 0.1
2014-Oct-21 14:33N 40°40' W 074°05'1 0.9
2014-Oct-21 13:33N 40°40' W 074°04'5 4.6
2014-Oct-21 12:33N 40°39' W 074°10'0 0.1
2014-Oct-21 11:33N 40°38' W 074°10'0 0.0
2014-Oct-21 10:33N 40°38' W 074°10'0 0.0
2014-Oct-21 09:33N 40°38' W 074°10'0 0.0
2014-Oct-21 08:33N 40°38' W 074°10'0 0.0
2014-Oct-21 07:31N 40°38' W 074°10'0 0.0
2014-Oct-21 06:33N 40°38' W 074°10'0 0.0
2014-Oct-21 05:32N 40°38' W 074°10'0 0.0
2014-Oct-21 04:33N 40°38' W 074°10'0 0.0
2014-Oct-21 03:33N 40°38' W 074°10'0 0.0
2014-Oct-21 02:33N 40°38' W 074°10'0 0.0
2014-Oct-21 01:33N 40°38' W 074°10'0 0.0
2014-Oct-21 00:33N 40°38' W 074°10'0 0.0
2014-Oct-20 23:33N 40°38' W 074°10'3 2.7
2014-Oct-20 22:33N 40°39' W 074°06'3 2.8
2014-Oct-20 21:32N 40°41' W 074°09'3 2.6
2014-Oct-20 20:33N 40°38' W 074°10'0 0.0
2014-Oct-20 19:33N 40°38' W 074°10'0 0.0
2014-Oct-20 18:33N 40°38' W 074°10'0 0.0
2014-Oct-20 17:33N 40°38' W 074°10'0 0.0
2014-Oct-20 16:33N 40°38' W 074°10'0 0.0
2014-Oct-20 15:33N 40°38' W 074°10'0 0.0
2014-Oct-20 14:33N 40°38' W 074°10'0 0.0
2014-Oct-20 13:33N 40°38' W 074°10'4 4.1
2014-Oct-20 12:33N 40°40' W 074°05'3 3.2
2014-Oct-20 11:33N 40°38' W 074°03'3 3.1
2014-Oct-20 10:33N 40°39' W 074°07'2 2.3
2014-Oct-20 09:33N 40°38' W 074°04'4 3.8
2014-Oct-20 08:32N 40°39' W 074°09'1 0.5
2014-Oct-20 07:33N 40°39' W 074°09'1 0.7
2014-Oct-20 06:34N 40°38' W 074°10'0 0.0
2014-Oct-20 05:34N 40°38' W 074°10'0 0.0
2014-Oct-20 04:33N 40°38' W 074°10'0 0.0
2014-Oct-20 03:34N 40°38' W 074°10'0 0.0
2014-Oct-20 02:34N 40°38' W 074°10'2 2.0
2014-Oct-20 01:33N 40°40' W 074°08'4 3.7
2014-Oct-20 00:34N 40°39' W 074°04'4 4.4
2014-Oct-19 23:33N 40°38' W 074°10'0 0.1
2014-Oct-19 22:34N 40°38' W 074°10'0 0.0
2014-Oct-19 21:33N 40°38' W 074°10'0 0.0
2014-Oct-19 20:33N 40°38' W 074°10'0 0.0
2014-Oct-19 19:31N 40°38' W 074°10'0 0.0
2014-Oct-19 18:34N 40°38' W 074°10'0 0.0
2014-Oct-19 17:33N 40°38' W 074°10'0 0.0
2014-Oct-19 16:33N 40°38' W 074°10'0 0.0
2014-Oct-19 15:33N 40°38' W 074°10'0 0.0
2014-Oct-19 14:33N 40°38' W 074°10'0 0.0
2014-Oct-19 13:34N 40°38' W 074°10'0 0.0
2014-Oct-19 12:34N 40°38' W 074°10'0 0.0
2014-Oct-19 11:34N 40°38' W 074°10'0 0.0
2014-Oct-19 10:33N 40°38' W 074°10'0 0.0
2014-Oct-19 09:29N 40°38' W 074°10'0 0.0
2014-Oct-19 08:33N 40°38' W 074°10'0 0.0
2014-Oct-19 07:33N 40°38' W 074°10'0 0.0
2014-Oct-19 06:33N 40°38' W 074°10'0 0.1
2014-Oct-19 05:33N 40°38' W 074°10'2 2.1
2014-Oct-19 04:33N 40°40' W 074°08'0 0.2
2014-Oct-19 03:31N 40°40' W 074°08'0 0.0
2014-Oct-19 02:33N 40°40' W 074°08'0 0.0
2014-Oct-19 01:34N 40°40' W 074°08'1 0.7
2014-Oct-19 00:33N 40°40' W 074°09'4 0.8
2014-Oct-18 19:27N 40°36' W 074°12'0 0.0
2014-Oct-18 18:31N 40°36' W 074°12'3 3.2
2014-Oct-18 17:33N 40°38' W 074°09'1 0.5
2014-Oct-18 16:29N 40°38' W 074°10'1 0.9
2014-Oct-18 15:30N 40°39' W 074°09'1 0.8
2014-Oct-18 14:33N 40°39' W 074°08'1 1.2
2014-Oct-18 13:30N 40°38' W 074°10'0 0.0
2014-Oct-18 12:33N 40°38' W 074°10'5 4.5
2014-Oct-18 11:31N 40°40' W 074°04'2 2.3
2014-Oct-18 10:33N 40°38' W 074°03'5 5.2
2014-Oct-18 09:34N 40°38' W 074°10'0 0.0
2014-Oct-18 08:34N 40°38' W 074°10'0 0.0
2014-Oct-18 07:34N 40°38' W 074°10'0 0.0
2014-Oct-18 06:33N 40°38' W 074°10'0 0.0
2014-Oct-18 05:34N 40°38' W 074°10'0 0.0
2014-Oct-18 04:33N 40°38' W 074°10'0 0.0
2014-Oct-18 03:33N 40°38' W 074°10'0 0.0
2014-Oct-18 02:33N 40°38' W 074°10'0 0.0
2014-Oct-18 01:33N 40°38' W 074°10'0 0.0
2014-Oct-18 00:33N 40°38' W 074°10'0 0.0
2014-Oct-17 23:33N 40°38' W 074°10'0 0.0
2014-Oct-17 22:34N 40°38' W 074°10'0 0.0
2014-Oct-17 21:34N 40°38' W 074°10'0 0.0
2014-Oct-17 20:33N 40°38' W 074°10'0 0.0
2014-Oct-17 19:34N 40°38' W 074°10'1 1.4
2014-Oct-17 18:33N 40°38' W 074°12'5 4.5
2014-Oct-17 17:22N 40°33' W 074°14'0 0.0
2014-Oct-17 15:15N 40°33' W 074°14'5 2.9
2014-Oct-17 13:33N 40°38' W 074°12'0 0.1
2014-Oct-17 12:21N 40°38' W 074°12'2 1.1
2014-Oct-17 10:33N 40°39' W 074°10'4 4.1
2014-Oct-17 09:34N 40°39' W 074°05'1 1.0
2014-Oct-17 08:33N 40°40' W 074°05'4 4.3
2014-Oct-17 07:33N 40°38' W 074°10'0 0.0
2014-Oct-17 06:33N 40°38' W 074°10'0 0.0
2014-Oct-17 05:23N 40°38' W 074°10'0 0.0
2014-Oct-17 04:34N 40°38' W 074°10'0 0.0
2014-Oct-17 03:31N 40°38' W 074°10'0 0.0
2014-Oct-17 02:28N 40°38' W 074°10'0 0.0
2014-Oct-17 01:08N 40°38' W 074°10'0 0.0
2014-Oct-17 00:30N 40°38' W 074°10'0 0.0
2014-Oct-16 23:26N 40°38' W 074°10'0 0.0
2014-Oct-16 22:28N 40°38' W 074°10'5 5.0
2014-Oct-16 21:34N 40°40' W 074°04'1 1.2
2014-Oct-16 20:33N 40°39' W 074°03'4 3.8
2014-Oct-16 19:33N 40°39' W 074°08'1 1.1
2014-Oct-16 18:33N 40°38' W 074°10'0 0.0
2014-Oct-16 17:27N 40°38' W 074°10'0 0.1
2014-Oct-16 16:33N 40°39' W 074°10'2 2.3
2014-Oct-16 15:34N 40°41' W 074°08'2 2.2
2014-Oct-16 14:33N 40°38' W 074°09'0 0.4
2014-Oct-16 13:33N 40°38' W 074°10'0 0.0
2014-Oct-16 12:33N 40°38' W 074°10'0 0.0
2014-Oct-16 10:33N 40°38' W 074°10'0 0.0
2014-Oct-16 09:30N 40°38' W 074°10'0 0.0
2014-Oct-16 08:12N 40°38' W 074°10'0 0.0
2014-Oct-16 07:32N 40°38' W 074°10'0 0.0
2014-Oct-16 06:13N 40°38' W 074°10'0 0.0
2014-Oct-16 05:29N 40°38' W 074°10'0 0.0
2014-Oct-16 03:29N 40°38' W 074°10'0 0.0
2014-Oct-16 02:29N 40°38' W 074°10'0 0.0
2014-Oct-16 01:33N 40°38' W 074°10'2 2.3
2014-Oct-16 00:33N 40°40' W 074°08'2 1.0
2014-Oct-15 22:33N 40°38' W 074°08'2 1.7
2014-Oct-15 21:33N 40°38' W 074°10'0 0.0
2014-Oct-15 20:33N 40°38' W 074°10'0 0.0
2014-Oct-15 19:33N 40°38' W 074°10'0 0.0
2014-Oct-15 18:33N 40°38' W 074°10'0 0.0
2014-Oct-15 17:33N 40°38' W 074°10'0 0.0
2014-Oct-15 16:24N 40°38' W 074°10'0 0.0
2014-Oct-15 15:33N 40°38' W 074°10'3 2.9
2014-Oct-15 14:25N 40°42' W 074°08'2 2.9
2014-Oct-15 13:33N 40°39' W 074°09'0 0.1
2014-Oct-15 12:33N 40°39' W 074°09'1 1.2
2014-Oct-15 11:33N 40°38' W 074°08'2 1.7
2014-Oct-15 10:33N 40°38' W 074°10'0 0.0
2014-Oct-15 09:33N 40°38' W 074°10'0 0.0
2014-Oct-15 08:33N 40°38' W 074°10'0 0.0
2014-Oct-15 07:33N 40°38' W 074°10'0 0.0
2014-Oct-15 06:33N 40°38' W 074°10'0 0.0
2014-Oct-15 05:33N 40°38' W 074°10'0 0.0
2014-Oct-15 04:33N 40°38' W 074°10'0 0.0
2014-Oct-15 03:33N 40°38' W 074°10'0 0.0
2014-Oct-15 02:33N 40°38' W 074°10'0 0.0
2014-Oct-15 01:33N 40°38' W 074°10'3 2.6
2014-Oct-15 00:33N 40°39' W 074°06'0 0.5
2014-Oct-14 23:33N 40°39' W 074°06'0 0.1
2014-Oct-14 22:33N 40°39' W 074°06'0 0.0
2014-Oct-14 21:33N 40°39' W 074°06'0 0.0
2014-Oct-14 20:33N 40°39' W 074°06'0 0.0
2014-Oct-14 19:32N 40°39' W 074°06'0 0.0
2014-Oct-14 18:33N 40°39' W 074°06'1 0.7
2014-Oct-14 17:33N 40°39' W 074°05'1 1.0
2014-Oct-14 16:30N 40°40' W 074°04'0 0.2
2014-Oct-14 15:33N 40°40' W 074°04'2 0.8
2014-Oct-14 13:31N 40°39' W 074°06'3 3.1
2014-Oct-14 12:33N 40°38' W 074°10'0 0.0
2014-Oct-14 11:33N 40°38' W 074°10'0 0.0
2014-Oct-14 10:33N 40°38' W 074°10'0 0.0
2014-Oct-14 09:33N 40°38' W 074°10'0 0.0
2014-Oct-14 08:32N 40°38' W 074°10'2 1.7
2014-Oct-14 07:27N 40°38' W 074°12'0 0.1
2014-Oct-14 06:27N 40°38' W 074°12'2 0.3
2014-Oct-14 00:33N 40°38' W 074°10'0 0.0
2014-Oct-13 23:14N 40°38' W 074°10'2 0.8
2014-Oct-13 20:24N 40°41' W 074°08'2 2.1
2014-Oct-13 19:18N 40°39' W 074°10'0 0.0
2014-Oct-13 18:33N 40°38' W 074°10'0 0.0
2014-Oct-13 17:30N 40°38' W 074°10'0 0.0
2014-Oct-13 16:31N 40°38' W 074°10'1 1.5
2014-Oct-13 15:32N 40°38' W 074°12'0 0.1
2014-Oct-13 14:32N 40°38' W 074°12'5 5.2
2014-Oct-13 13:33N 40°39' W 074°05'1 1.1
2014-Oct-13 12:33N 40°40' W 074°04'0 0.0
2014-Oct-13 11:33N 40°40' W 074°04'0 0.2
2014-Oct-13 10:33N 40°40' W 074°04'0 0.2
2014-Oct-13 08:33N 40°40' W 074°04'3 3.1
2014-Oct-13 07:27N 40°40' W 074°09'0 0.2
2014-Oct-13 06:33N 40°40' W 074°09'0 0.0
2014-Oct-13 05:24N 40°40' W 074°09'0 0.0
2014-Oct-13 04:24N 40°40' W 074°09'0 0.0
2014-Oct-13 03:21N 40°40' W 074°09'0 0.0
2014-Oct-13 02:33N 40°40' W 074°09'0 0.2
2014-Oct-13 01:30N 40°40' W 074°09'1 1.1
2014-Oct-13 00:32N 40°41' W 074°08'2 1.0
2014-Oct-12 22:12N 40°38' W 074°10'1 1.2
2014-Oct-12 21:15N 40°39' W 074°09'1 1.3
2014-Oct-12 20:27N 40°38' W 074°10'0 0.1
2014-Oct-12 19:11N 40°38' W 074°10'0 0.0
2014-Oct-12 18:28N 40°38' W 074°10'0 0.0
2014-Oct-12 16:33N 40°38' W 074°10'6 1.5
2014-Oct-12 12:28N 40°33' W 074°14'2 1.8
2014-Oct-12 11:19N 40°35' W 074°13'4 5.1
2014-Oct-12 10:32N 40°38' W 074°10'0 0.0
2014-Oct-12 09:32N 40°38' W 074°10'0 0.0
2014-Oct-12 08:33N 40°38' W 074°10'  
Track history (hours):
 
Tides and Currents Weather Stations Pressure Air Temp Water Temp Dewpoint Dewpoint Depression Visibility Wind Speed Wind Dir Waves Ship Positions

Elizabeth Mc Allister

Owner: MC ALLISTER TOWING & TRANSPORTATION INC, NEW YORK, NY. More information available from US FCC via Universal Licensing System and Coast Guard Vessel Documentation Center.

Last reported at 2014-Oct-22 07:33 UTC. Time now 2014-Oct-22 08:09 UTC.
Position N 40°38' W 074°10'.

Length 31 m.

Type: Tug. MMSI: 366945680.

Date/timePositionNaut miles runAvg speedWind from/ knotsBaromVisibWave heightAir tempDewpointWater temp
2014-Oct-22 07:33N 40°38' W 074°10'0 0.0
2014-Oct-22 06:33N 40°38' W 074°10'0 0.0
2014-Oct-22 05:33N 40°38' W 074°10'0 0.0
2014-Oct-22 04:33N 40°38' W 074°10'0 0.0
2014-Oct-22 03:33N 40°38' W 074°10'0 0.0
2014-Oct-22 02:33N 40°38' W 074°10'2 1.9
2014-Oct-22 01:33N 40°39' W 074°07'3 2.9
2014-Oct-22 00:33N 40°40' W 074°04'4 3.9
2014-Oct-21 23:33N 40°38' W 074°09'1 0.8
2014-Oct-21 22:33N 40°38' W 074°10'0 0.0
2014-Oct-21 21:33N 40°38' W 074°10'0 0.0
2014-Oct-21 20:33N 40°38' W 074°10'5 4.7
2014-Oct-21 19:33N 40°39' W 074°04'3 3.4
2014-Oct-21 18:33N 40°41' W 074°00'0 0.0
2014-Oct-21 17:33N 40°41' W 074°00'1 0.8
2014-Oct-21 16:33N 40°41' W 074°01'3 3.0
2014-Oct-21 15:33N 40°40' W 074°05'0 0.1
2014-Oct-21 14:33N 40°40' W 074°05'1 0.9
2014-Oct-21 13:33N 40°40' W 074°04'5 4.6
2014-Oct-21 12:33N 40°39' W 074°10'0 0.1
2014-Oct-21 11:33N 40°38' W 074°10'0 0.0
2014-Oct-21 10:33N 40°38' W 074°10'0 0.0
2014-Oct-21 09:33N 40°38' W 074°10'0 0.0
2014-Oct-21 08:33N 40°38' W 074°10'0 0.0
2014-Oct-21 07:31N 40°38' W 074°10'0 0.0
2014-Oct-21 06:33N 40°38' W 074°10'0 0.0
2014-Oct-21 05:32N 40°38' W 074°10'0 0.0
2014-Oct-21 04:33N 40°38' W 074°10'0 0.0
2014-Oct-21 03:33N 40°38' W 074°10'0 0.0
2014-Oct-21 02:33N 40°38' W 074°10'0 0.0
2014-Oct-21 01:33N 40°38' W 074°10'0 0.0
2014-Oct-21 00:33N 40°38' W 074°10'0 0.0
2014-Oct-20 23:33N 40°38' W 074°10'3 2.7
2014-Oct-20 22:33N 40°39' W 074°06'3 2.8
2014-Oct-20 21:32N 40°41' W 074°09'3 2.6
2014-Oct-20 20:33N 40°38' W 074°10'0 0.0
2014-Oct-20 19:33N 40°38' W 074°10'0 0.0
2014-Oct-20 18:33N 40°38' W 074°10'0 0.0
2014-Oct-20 17:33N 40°38' W 074°10'0 0.0
2014-Oct-20 16:33N 40°38' W 074°10'0 0.0
2014-Oct-20 15:33N 40°38' W 074°10'0 0.0
2014-Oct-20 14:33N 40°38' W 074°10'0 0.0
2014-Oct-20 13:33N 40°38' W 074°10'4 4.1
2014-Oct-20 12:33N 40°40' W 074°05'3 3.2
2014-Oct-20 11:33N 40°38' W 074°03'3 3.1
2014-Oct-20 10:33N 40°39' W 074°07'2 2.3
2014-Oct-20 09:33N 40°38' W 074°04'4 3.8
2014-Oct-20 08:32N 40°39' W 074°09'1 0.5
2014-Oct-20 07:33N 40°39' W 074°09'1 0.7
2014-Oct-20 06:34N 40°38' W 074°10'0 0.0
2014-Oct-20 05:34N 40°38' W 074°10'0 0.0
2014-Oct-20 04:33N 40°38' W 074°10'0 0.0
2014-Oct-20 03:34N 40°38' W 074°10'0 0.0
2014-Oct-20 02:34N 40°38' W 074°10'2 2.0
2014-Oct-20 01:33N 40°40' W 074°08'4 3.7
2014-Oct-20 00:34N 40°39' W 074°04'4 4.4
2014-Oct-19 23:33N 40°38' W 074°10'0 0.1
2014-Oct-19 22:34N 40°38' W 074°10'0 0.0
2014-Oct-19 21:33N 40°38' W 074°10'0 0.0
2014-Oct-19 20:33N 40°38' W 074°10'0 0.0
2014-Oct-19 19:31N 40°38' W 074°10'0 0.0
2014-Oct-19 18:34N 40°38' W 074°10'0 0.0
2014-Oct-19 17:33N 40°38' W 074°10'0 0.0
2014-Oct-19 16:33N 40°38' W 074°10'0 0.0
2014-Oct-19 15:33N 40°38' W 074°10'0 0.0
2014-Oct-19 14:33N 40°38' W 074°10'0 0.0
2014-Oct-19 13:34N 40°38' W 074°10'0 0.0
2014-Oct-19 12:34N 40°38' W 074°10'0 0.0
2014-Oct-19 11:34N 40°38' W 074°10'0 0.0
2014-Oct-19 10:33N 40°38' W 074°10'0 0.0
2014-Oct-19 09:29N 40°38' W 074°10'0 0.0
2014-Oct-19 08:33N 40°38' W 074°10'0 0.0
2014-Oct-19 07:33N 40°38' W 074°10'0 0.0
2014-Oct-19 06:33N 40°38' W 074°10'0 0.1
2014-Oct-19 05:33N 40°38' W 074°10'2 2.1
2014-Oct-19 04:33N 40°40' W 074°08'0 0.2
2014-Oct-19 03:31N 40°40' W 074°08'0 0.0
2014-Oct-19 02:33N 40°40' W 074°08'0 0.0
2014-Oct-19 01:34N 40°40' W 074°08'1 0.7
2014-Oct-19 00:33N 40°40' W 074°09'4 0.8
2014-Oct-18 19:27N 40°36' W 074°12'0 0.0
2014-Oct-18 18:31N 40°36' W 074°12'3 3.2
2014-Oct-18 17:33N 40°38' W 074°09'1 0.5
2014-Oct-18 16:29N 40°38' W 074°10'1 0.9
2014-Oct-18 15:30N 40°39' W 074°09'1 0.8
2014-Oct-18 14:33N 40°39' W 074°08'1 1.2
2014-Oct-18 13:30N 40°38' W 074°10'0 0.0
2014-Oct-18 12:33N 40°38' W 074°10'5 4.5
2014-Oct-18 11:31N 40°40' W 074°04'2 2.3
2014-Oct-18 10:33N 40°38' W 074°03'5 5.2
2014-Oct-18 09:34N 40°38' W 074°10'0 0.0
2014-Oct-18 08:34N 40°38' W 074°10'0 0.0
2014-Oct-18 07:34N 40°38' W 074°10'0 0.0
2014-Oct-18 06:33N 40°38' W 074°10'0 0.0
2014-Oct-18 05:34N 40°38' W 074°10'0 0.0
2014-Oct-18 04:33N 40°38' W 074°10'0 0.0
2014-Oct-18 03:33N 40°38' W 074°10'0 0.0
2014-Oct-18 02:33N 40°38' W 074°10'0 0.0
2014-Oct-18 01:33N 40°38' W 074°10'0 0.0
2014-Oct-18 00:33N 40°38' W 074°10'0 0.0
2014-Oct-17 23:33N 40°38' W 074°10'0 0.0
2014-Oct-17 22:34N 40°38' W 074°10'0 0.0
2014-Oct-17 21:34N 40°38' W 074°10'0 0.0
2014-Oct-17 20:33N 40°38' W 074°10'0 0.0
2014-Oct-17 19:34N 40°38' W 074°10'1 1.4
2014-Oct-17 18:33N 40°38' W 074°12'5 4.5
2014-Oct-17 17:22N 40°33' W 074°14'0 0.0
2014-Oct-17 15:15N 40°33' W 074°14'5 2.9
2014-Oct-17 13:33N 40°38' W 074°12'0 0.1
2014-Oct-17 12:21N 40°38' W 074°12'2 1.1
2014-Oct-17 10:33N 40°39' W 074°10'4 4.1
2014-Oct-17 09:34N 40°39' W 074°05'1 1.0
2014-Oct-17 08:33N 40°40' W 074°05'4 4.3
2014-Oct-17 07:33N 40°38' W 074°10'0 0.0
2014-Oct-17 06:33N 40°38' W 074°10'0 0.0
2014-Oct-17 05:23N 40°38' W 074°10'0 0.0
2014-Oct-17 04:34N 40°38' W 074°10'0 0.0
2014-Oct-17 03:31N 40°38' W 074°10'0 0.0
2014-Oct-17 02:28N 40°38' W 074°10'0 0.0
2014-Oct-17 01:08N 40°38' W 074°10'0 0.0
2014-Oct-17 00:30N 40°38' W 074°10'0 0.0
2014-Oct-16 23:26N 40°38' W 074°10'0 0.0
2014-Oct-16 22:28N 40°38' W 074°10'5 5.0
2014-Oct-16 21:34N 40°40' W 074°04'1 1.2
2014-Oct-16 20:33N 40°39' W 074°03'4 3.8
2014-Oct-16 19:33N 40°39' W 074°08'1 1.1
2014-Oct-16 18:33N 40°38' W 074°10'0 0.0
2014-Oct-16 17:27N 40°38' W 074°10'0 0.1
2014-Oct-16 16:33N 40°39' W 074°10'2 2.3
2014-Oct-16 15:34N 40°41' W 074°08'2 2.2
2014-Oct-16 14:33N 40°38' W 074°09'0 0.4
2014-Oct-16 13:33N 40°38' W 074°10'0 0.0
2014-Oct-16 12:33N 40°38' W 074°10'0 0.0
2014-Oct-16 10:33N 40°38' W 074°10'0 0.0
2014-Oct-16 09:30N 40°38' W 074°10'0 0.0
2014-Oct-16 08:12N 40°38' W 074°10'0 0.0
2014-Oct-16 07:32N 40°38' W 074°10'0 0.0
2014-Oct-16 06:13N 40°38' W 074°10'0 0.0
2014-Oct-16 05:29N 40°38' W 074°10'0 0.0
2014-Oct-16 03:29N 40°38' W 074°10'0 0.0
2014-Oct-16 02:29N 40°38' W 074°10'0 0.0
2014-Oct-16 01:33N 40°38' W 074°10'2 2.3
2014-Oct-16 00:33N 40°40' W 074°08'2 1.0
2014-Oct-15 22:33N 40°38' W 074°08'2 1.7
2014-Oct-15 21:33N 40°38' W 074°10'0 0.0
2014-Oct-15 20:33N 40°38' W 074°10'0 0.0
2014-Oct-15 19:33N 40°38' W 074°10'0 0.0
2014-Oct-15 18:33N 40°38' W 074°10'0 0.0
2014-Oct-15 17:33N 40°38' W 074°10'0 0.0
2014-Oct-15 16:24N 40°38' W 074°10'0 0.0
2014-Oct-15 15:33N 40°38' W 074°10'3 2.9
2014-Oct-15 14:25N 40°42' W 074°08'2 2.9
2014-Oct-15 13:33N 40°39' W 074°09'0 0.1
2014-Oct-15 12:33N 40°39' W 074°09'1 1.2
2014-Oct-15 11:33N 40°38' W 074°08'2 1.7
2014-Oct-15 10:33N 40°38' W 074°10'0 0.0
2014-Oct-15 09:33N 40°38' W 074°10'0 0.0
2014-Oct-15 08:33N 40°38' W 074°10'0 0.0
2014-Oct-15 07:33N 40°38' W 074°10'0 0.0
2014-Oct-15 06:33N 40°38' W 074°10'0 0.0
2014-Oct-15 05:33N 40°38' W 074°10'0 0.0
2014-Oct-15 04:33N 40°38' W 074°10'0 0.0
2014-Oct-15 03:33N 40°38' W 074°10'0 0.0
2014-Oct-15 02:33N 40°38' W 074°10'0 0.0
2014-Oct-15 01:33N 40°38' W 074°10'3 2.6
2014-Oct-15 00:33N 40°39' W 074°06'0 0.5
2014-Oct-14 23:33N 40°39' W 074°06'0 0.1
2014-Oct-14 22:33N 40°39' W 074°06'0 0.0
2014-Oct-14 21:33N 40°39' W 074°06'0 0.0
2014-Oct-14 20:33N 40°39' W 074°06'0 0.0
2014-Oct-14 19:32N 40°39' W 074°06'0 0.0
2014-Oct-14 18:33N 40°39' W 074°06'1 0.7
2014-Oct-14 17:33N 40°39' W 074°05'1 1.0
2014-Oct-14 16:30N 40°40' W 074°04'0 0.2
2014-Oct-14 15:33N 40°40' W 074°04'2 0.8
2014-Oct-14 13:31N 40°39' W 074°06'3 3.1
2014-Oct-14 12:33N 40°38' W 074°10'0 0.0
2014-Oct-14 11:33N 40°38' W 074°10'0 0.0
2014-Oct-14 10:33N 40°38' W 074°10'0 0.0
2014-Oct-14 09:33N 40°38' W 074°10'0 0.0
2014-Oct-14 08:32N 40°38' W 074°10'2 1.7
2014-Oct-14 07:27N 40°38' W 074°12'0 0.1
2014-Oct-14 06:27N 40°38' W 074°12'2 0.3
2014-Oct-14 00:33N 40°38' W 074°10'0 0.0
2014-Oct-13 23:14N 40°38' W 074°10'2 0.8
2014-Oct-13 20:24N 40°41' W 074°08'2 2.1
2014-Oct-13 19:18N 40°39' W 074°10'0 0.0
2014-Oct-13 18:33N 40°38' W 074°10'0 0.0
2014-Oct-13 17:30N 40°38' W 074°10'0 0.0
2014-Oct-13 16:31N 40°38' W 074°10'1 1.5
2014-Oct-13 15:32N 40°38' W 074°12'0 0.1
2014-Oct-13 14:32N 40°38' W 074°12'5 5.2
2014-Oct-13 13:33N 40°39' W 074°05'1 1.1
2014-Oct-13 12:33N 40°40' W 074°04'0 0.0
2014-Oct-13 11:33N 40°40' W 074°04'0 0.2
2014-Oct-13 10:33N 40°40' W 074°04'0 0.2
2014-Oct-13 08:33N 40°40' W 074°04'3 3.1
2014-Oct-13 07:27N 40°40' W 074°09'0 0.2
2014-Oct-13 06:33N 40°40' W 074°09'0 0.0
2014-Oct-13 05:24N 40°40' W 074°09'0 0.0
2014-Oct-13 04:24N 40°40' W 074°09'0 0.0
2014-Oct-13 03:21N 40°40' W 074°09'0 0.0
2014-Oct-13 02:33N 40°40' W 074°09'0 0.2
2014-Oct-13 01:30N 40°40' W 074°09'1 1.1
2014-Oct-13 00:32N 40°41' W 074°08'2 1.0
2014-Oct-12 22:12N 40°38' W 074°10'1 1.2
2014-Oct-12 21:15N 40°39' W 074°09'1 1.3
2014-Oct-12 20:27N 40°38' W 074°10'0 0.1
2014-Oct-12 19:11N 40°38' W 074°10'0 0.0
2014-Oct-12 18:28N 40°38' W 074°10'0 0.0
2014-Oct-12 16:33N 40°38' W 074°10'6 1.5
2014-Oct-12 12:28N 40°33' W 074°14'2 1.8
2014-Oct-12 11:19N 40°35' W 074°13'4 5.1
2014-Oct-12 10:32N 40°38' W 074°10'0 0.0
2014-Oct-12 09:32N 40°38' W 074°10'0 0.0
2014-Oct-12 08:33N 40°38' W 074°10'  

Dump ship's entire track history